Location: Hall+in+Tirol
(47.2830°N, 11.5170°E)
Time: 05:26:33
(UTC+01:00)

Gurwin Techsat 1B - Visible Passes

Search period start: 01 March 2015 00:00
Search period end: 11 March 2015 00:00
Orbit: 813 x 814 km, 98.5° (Epoch: 27 February)

Date Brightness Start Highest point End Pass type
(mag) Time Alt. Az. Time Alt. Az. Time Alt. Az.
01 Mar 10.7 02:59:32 10° NNE 03:01:15 21° NNE 03:01:15 21° NNE visible
01 Mar 10.5 04:40:43 10° NNW 04:42:29 16° NNW 04:42:29 16° NNW visible
02 Mar 11.0 02:36:56 10° NNE 02:38:24 19° NNE 02:38:24 19° NNE visible
02 Mar 10.3 04:17:28 10° N 04:19:37 20° NNW 04:19:37 20° NNW visible
03 Mar 11.2 02:14:29 10° NNE 02:15:33 15° NE 02:15:33 15° NE visible
03 Mar 10.2 03:54:24 10° N 03:56:46 24° NNW 03:56:46 24° NNW visible
04 Mar 11.5 01:52:18 10° NE 01:52:41 11° NE 01:52:41 11° NE visible
04 Mar 10.2 03:31:29 10° N 03:33:54 27° N 03:33:54 27° N visible
04 Mar 10.7 05:14:34 10° NW 05:15:07 10° NW 05:15:07 10° NW visible
05 Mar 10.3 03:08:42 10° NNE 03:11:03 27° NNE 03:11:03 27° NNE visible
05 Mar 10.5 04:50:13 10° NNW 04:52:16 15° NW 04:52:16 15° NW visible
06 Mar 10.6 02:46:02 10° NNE 02:48:11 25° NNE 02:48:11 25° NNE visible
06 Mar 10.2 04:26:48 10° N 04:29:24 20° NW 04:29:24 20° NW visible
07 Mar 10.9 02:23:30 10° NNE 02:25:19 20° NE 02:25:19 20° NE visible
07 Mar 10.0 04:03:40 10° N 04:06:33 26° NNW 04:06:33 26° NNW visible
08 Mar 11.2 02:01:11 10° NE 02:02:28 16° NE 02:02:28 16° NE visible
08 Mar 9.9 03:40:42 10° N 03:43:41 31° NNW 03:43:41 31° NNW visible
09 Mar 11.5 01:39:15 10° NE 01:39:36 11° NE 01:39:36 11° NE visible
09 Mar 9.9 03:17:51 10° N 03:20:49 34° N 03:20:49 34° N visible
09 Mar 10.5 04:59:49 10° NNW 05:02:03 13° NW 05:02:03 13° NW visible
10 Mar 10.1 02:55:08 10° NNE 02:57:58 32° NNE 02:57:58 32° NNE visible
10 Mar 10.2 04:36:11 10° NNW 04:39:11 19° NW 04:39:11 19° NW visible
